sat.trackr.live / text

‹ back to catalog

LEMUR-2-EMERSONROSE

NORAD 63261 · 2025-052BD

PAYLOAD ACTIVE UNKNOWN

§ Identity

Operator
Country
US
Launch date
2025-03-15
Launch site
AFWTR
Launch vehicle
Mass (kg)
RCS (m²)

Purposes: earth_obs

External: N2YO · Heavens-Above · Gunter

§ Orbital elements

Epoch: 2026-05-24T15:54:38.120544Z

Period
96.07 min
Inclination
97.6946°
Eccentricity
0.0003758
Mean motion
14.98892124 rev/d
Perigee alt
567.7 km
Apogee alt
572.9 km
Semi-major
6,948.5 km
B*
3.0630e-4
RAAN
38.2875°
Arg perigee
98.3514°
Mean anomaly
261.8135°
Rev number
6,521

§ Raw data

LEMUR-2-EMERSONROSE1 63261U 25052BD  26144.66294121  .00003643  00000+0  30630-3 0  99902 63261  97.6946  38.2875 0003758  98.3514 261.8135 14.98892124 65215

JSON: /api/v1/satellites/63261 · /tle

For live sub-satellite position, see the globe view (requires WebGL).

§ Visibility from observer

Set your observer location to see the next 7 days of passes ≥ 10°. The values pass through the URL so the page stays shareable.

No JS? Fill the form by hand. The geolocation button needs JavaScript.